Simultaneous Nadir Overpasses (SNOs) Predictions

Prediction of SNOs between GOES-16 and NOAA-19 Satellite Orbit:

Table of predicted SNOs for the next 14.0 days since TLE Epoch: 1/28/2023
Index Date Time (GOES-16) GOES-16 Lat,Lon NOAA-19 Lat,Lon Distance(km) Time Diff (sec)
1 01/28/2023 13:12:46 -0.02, -75.19 -0.29, -74.01 135.48 80
2 01/29/2023 13:00:50 -0.02, -75.20 -0.96, -71.10 467.90 80
3 01/31/2023 01:35:46 0.01, -75.19 -0.82, -78.83 415.58 80
4 02/01/2023 01:23:50 0.01, -75.19 -0.14, -75.92 82.91 80
5 02/02/2023 01:09:13 0.02, -75.20 0.53, -73.01 249.91 80
6 02/04/2023 13:32:14 -0.00, -75.24 0.62, -77.83 297.07 80
7 02/05/2023 13:17:38 0.00, -75.25 -0.06, -74.93 36.59 80
8 02/06/2023 13:05:41 0.01, -75.26 -0.75, -72.02 370.46 80
9 02/09/2023 01:28:40 -0.02, -75.29 -0.40, -76.83 177.01 80
10 02/10/2023 01:14:03 -0.02, -75.30 0.28, -73.92 157.21 80
11 02/11/2023 01:02:07 -0.02, -75.32 0.97, -71.02 491.45 80
